This is the latest recevied weather packets stored in our database for station/object LRIA. If no packets are shown the sender has not sent any weather packets the latest 1 day(s).
| Time | Temp. | Humidity | Pressure | Rain* | Wind** | Luminosity | Snow |
|---|---|---|---|---|---|---|---|
| 1836274124 | 17.22° C | 88% | 1026 hPa | - | 4.02 m/s, 300° | - | - |
| 1778047405 | 15° C | 51% | 1014 hPa | - | 4.02 m/s, 120° | - | - |
| 1778046504 | 13.89° C | 55% | 1014 hPa | - | 4.02 m/s, 120° | - | - |
| 1778045611 | 13.89° C | 55% | 1014 hPa | - | 4.02 m/s, 120° | - | - |
| 1778044703 | 12.78° C | 55% | 1014 hPa | - | 4.02 m/s, 110° | - | - |
| 1778043817 | 12.78° C | 55% | 1014 hPa | - | 4.02 m/s, 110° | - | - |
| 1778042919 | 12.22° C | 58% | 1014 hPa | - | 3.58 m/s, 110° | - | - |
| 1778042007 | 12.22° C | 58% | 1014 hPa | - | 3.58 m/s, 110° | - | - |
| 1778041104 | 11.11° C | 62% | 1014 hPa | - | 3.58 m/s, 100° | - | - |
| 1778040203 | 11.11° C | 62% | 1014 hPa | - | 3.58 m/s, 100° | - | - |
| 1778039304 | 10° C | 62% | 1014 hPa | - | 3.58 m/s, 100° | - | - |
| 1778038403 | 10° C | 62% | 1014 hPa | - | 3.58 m/s, 100° | - | - |
| 1778037503 | 8.89° C | 66% | 1014 hPa | - | 3.58 m/s, 110° | - | - |
| 1778036603 | 8.89° C | 66% | 1014 hPa | - | 3.58 m/s, 110° | - | - |
| 1778035703 | 10° C | 62% | 1013 hPa | - | 3.13 m/s, 110° | - | - |
| 1778034803 | 10° C | 62% | 1013 hPa | - | 3.13 m/s, 110° | - | - |
| 1778033903 | 10° C | 62% | 1013 hPa | - | 2.68 m/s, 110° | - | - |
| 1778033003 | 10° C | 62% | 1013 hPa | - | 2.68 m/s, 110° | - | - |
| 1778032103 | 11.11° C | 58% | 1013 hPa | - | 3.13 m/s, 110° | - | - |
| 1778031203 | 11.11° C | 58% | 1013 hPa | - | 3.13 m/s, 110° | - | - |
| 1778030304 | 11.11° C | 62% | 1013 hPa | - | 3.58 m/s, 120° | - | - |
| 1778029403 | 11.11° C | 62% | 1013 hPa | - | 3.58 m/s, 120° | - | - |
| 1778028503 | 11.11° C | 67% | 1013 hPa | - | 3.58 m/s, 120° | - | - |
| 1778027681 | 11.11° C | 67% | 1013 hPa | - | 3.58 m/s, 120° | - | - |
| 1778026704 | 11.11° C | 72% | 1013 hPa | - | 4.02 m/s, 120° | - | - |
* Rain since midnight (hover to see other rain measurements)
** Current wind speed in m/s (hover to see current wind gust speed)